Location: Unspecified
(0.0000°N, 0.0000°E)
Time: 02:39:30
(UTC+01:00)

Cosmos 1295 Rocket - Visible Passes

Search period start: 07 March 2015 00:00
Search period end: 17 March 2015 00:00
Orbit: 944 x 994 km, 82.9° (Epoch: 05 March)

Date Brightness Start Highest point End Pass type
(mag) Time Alt. Az. Time Alt. Az. Time Alt. Az.
07 Mar 4.4 20:12:45 10° N 20:18:44 63° E 20:24:46 10° SSE visible
08 Mar 4.9 20:36:11 10° NNW 20:42:10 63° W 20:48:12 10° S visible
09 Mar 6.3 21:00:26 10° NW 21:05:40 29° W 21:10:47 10° SSW visible
10 Mar 4.7 19:38:21 10° NNE 19:44:02 44° E 19:49:50 10° SSE visible
10 Mar 7.3 21:26:19 10° WNW 21:29:17 13° W 21:31:43 10° WSW visible
11 Mar 4.5 20:01:24 10° N 20:07:28 88° W 20:13:38 10° S visible
12 Mar 5.7 20:25:15 10° NNW 20:30:56 41° W 20:36:37 10° SSW visible
13 Mar 7.0 20:50:08 10° NW 20:54:29 19° W 20:58:33 10° SW visible
14 Mar 8.1 06:26:26 10° ESE 06:28:31 12° E 06:31:10 10° ENE visible
14 Mar 4.5 19:26:47 10° N 19:32:48 67° E 19:38:53 10° SSE visible
15 Mar 7.1 06:47:02 10° SSE 06:52:09 27° E 06:57:25 10° NE visible
15 Mar 5.1 19:50:15 10° NNW 19:56:13 59° W 20:02:15 10° S visible
16 Mar 6.6 20:14:35 10° NW 20:19:44 28° W 20:24:45 10° SSW visible
